Vorticity
nan nan nan nan nan nan nan nan nan nan nan nan nan nan nan nan nan nan nan nan nan nan nan nan nan nan nan nan nan nan nan nan nan nan nan nan nan nan nan nan nan nan nan nan nan nan nan
nan 7 7 7 7 7 7 6 7 10 11 9 6 6 7 6 7 6 5 6 7 8 7 7 6 15 12 1 14 8 1 3 7 5 7 6 6 7 6 6 7 6 6 8 7 9 nan
nan 8 9 7 6 7 9 9 6 6 8 9 9 7 5 7 7 6 6 6 7 8 7 7 10 15 12 8 1 -0 3 5 8 5 4 6 7 4 7 10 6 6 11 13 6 9 nan
nan 8 7 9 10 8 7 7 7 6 6 7 9 9 7 7 6 7 7 6 5 7 9 9 13 13 9 14 11 3 4 8 8 8 6 4 10 9 5 5 8 10 9 7 10 7 nan
nan 7 7 9 8 9 9 7 6 7 8 7 8 8 8 7 7 7 7 5 7 15 16 13 12 8 4 12 16 17 13 9 11 7 8 9 9 9 7 10 10 11 8 5 15 8 nan
nan 8 7 8 7 8 8 8 9 7 8 9 7 7 8 8 7 7 10 16 24 21 18 13 6 5 10 11 9 16 12 10 11 8 7 8 10 6 6 7 3 3 6 14 11 7 nan
nan 7 6 6 6 6 5 6 9 10 7 7 8 8 8 8 7 8 12 18 20 19 11 9 -0 -8 -2 1 11 13 11 10 8 7 12 6 5 7 5 1 1 -0 4 11 14 13 nan
nan 9 8 7 6 6 6 6 7 9 8 7 8 8 7 8 9 11 11 8 1 4 14 11 0 5 -0 1 4 6 15 9 9 6 4 9 8 6 2 3 6 9 10 7 7 12 nan
nan 9 10 9 9 10 9 8 7 6 8 8 8 8 7 8 12 17 12 2 0 9 17 18 19 14 16 11 5 6 6 9 7 9 5 5 9 7 3 4 10 13 6 9 6 6 nan
nan 9 11 11 11 10 11 10 9 7 8 9 8 8 6 8 11 11 9 9 12 11 6 16 18 17 21 13 20 14 2 7 7 10 7 8 12 6 9 7 9 9 7 10 14 11 nan
nan 10 10 11 12 12 11 10 10 9 8 8 10 8 11 4 3 5 2 3 18 13 6 16 16 14 21 8 7 23 9 4 14 5 5 5 12 13 5 11 9 5 8 8 9 7 nan
nan 10 10 11 12 12 11 10 10 10 9 8 11 9 6 6 8 5 4 13 19 10 8 9 14 11 15 9 -12 12 25 1 9 13 0 6 3 8 12 12 6 6 13 11 9 9 nan
nan 11 10 10 10 11 11 12 11 10 10 8 9 9 5 5 4 4 12 18 13 4 6 12 12 7 7 14 9 3 8 12 5 9 11 6 6 8 12 9 10 9 7 8 8 14 nan
nan 10 11 11 10 10 10 11 12 11 10 9 8 10 7 5 4 7 13 14 8 13 -0 -4 3 8 11 9 16 12 2 7 7 3 10 14 10 13 10 11 8 9 7 6 9 7 nan
nan 11 11 11 10 10 11 11 12 12 11 9 7 6 11 9 10 11 13 7 5 10 7 -4 -5 15 17 7 13 16 9 12 11 6 3 10 8 8 8 9 7 6 11 6 5 9 nan
nan 11 11 11 10 10 11 12 12 13 11 3 6 11 12 10 11 7 12 7 4 -3 -6 13 15 6 11 15 14 7 11 14 17 12 -0 1 19 6 6 9 6 8 2 8 11 11 nan
nan 10 11 11 11 11 11 12 12 13 12 4 0 10 17 12 2 13 10 11 6 4 8 5 10 4 -1 0 3 16 18 11 16 15 7 0 3 17 12 5 5 6 6 9 12 6 nan
nan 11 10 11 11 11 12 12 13 13 9 2 2 15 13 11 1 10 12 3 2 9 8 4 5 9 8 6 7 19 14 3 14 22 8 5 4 10 7 17 21 6 8 4 3 9 nan
nan 11 11 11 12 12 12 13 13 13 1 -2 7 10 16 12 8 6 10 5 -1 12 4 3 7 5 4 7 9 9 11 8 18 24 16 10 3 -0 10 16 21 13 5 7 6 11 nan
nan 11 12 12 14 16 15 13 15 15 1 -5 7 8 13 9 12 15 8 12 8 12 10 5 6 -1 4 14 10 6 8 2 13 30 24 5 6 11 3 6 9 8 8 6 3 1 nan
nan 14 16 19 18 13 11 20 21 18 3 -7 4 10 14 18 11 9 3 9 12 9 17 6 8 12 7 4 11 13 6 6 11 20 23 16 11 7 9 9 2 5 6 15 9 3 nan
nan 16 17 17 13 9 9 11 15 18 6 -4 6 10 9 15 24 14 6 3 5 8 9 6 5 11 9 7 8 8 11 15 8 8 13 12 24 20 3 5 10 11 8 8 12 12 nan
nan 14 10 9 10 9 9 8 11 8 -2 -2 7 11 14 14 13 16 16 5 8 -0 9 12 10 8 2 15 20 17 9 7 8 8 6 12 15 15 18 13 6 16 23 8 5 13 nan
nan 10 10 10 10 10 11 10 10 9 -7 -6 11 12 9 17 15 8 12 14 8 9 4 11 12 11 11 7 13 7 6 11 16 11 5 7 15 12 14 15 12 10 13 12 13 8 nan
nan 10 11 11 12 13 12 11 11 10 -3 -5 8 10 9 14 17 12 10 13 14 11 7 8 6 11 20 6 1 1 8 12 15 10 6 13 19 13 16 4 5 15 8 9 9 11 nan
nan 12 12 12 14 17 19 16 11 10 2 -2 4 9 13 15 15 18 11 8 10 12 14 11 11 11 15 15 13 8 5 8 9 17 10 11 14 10 10 18 9 11 10 6 11 15 nan
nan 17 15 16 17 17 17 18 16 13 1 -5 12 11 4 14 13 18 16 12 10 9 11 14 15 10 12 12 12 14 12 8 11 9 7 12 9 10 12 8 13 14 15 11 11 8 nan
nan 19 17 16 15 17 17 17 17 15 4 -5 6 11 5 12 18 7 10 16 17 13 10 9 13 11 10 15 11 9 13 13 8 6 13 10 7 8 7 10 11 7 16 16 8 11 nan
nan nan nan nan nan nan nan nan nan nan nan nan nan nan nan nan nan nan nan nan nan nan nan nan nan nan nan nan nan nan nan nan nan nan nan nan nan nan nan nan nan nan nan nan nan nan nan
CAPE
5 25 17 2 1 3 8 28 28 23 10 6 7 4 6 10 7 6 0 0 0 0 0 0 0 1 0 0 0 0 0 0 0 0 0 0 0 0 0 0 0 0 0 0 1 0 14
3 14 32 29 5 6 7 21 20 27 21 20 15 3 6 5 18 16 5 0 0 0 0 0 3 2 0 0 0 0 0 0 0 0 0 0 0 0 0 0 0 0 0 0 0 0 0
33 20 28 26 23 20 16 33 23 13 24 23 19 16 11 4 7 16 10 0 0 0 0 0 2 16 4 0 0 0 0 0 0 0 0 0 0 0 0 0 0 0 0 0 0 0 0
22 32 18 42 42 25 32 31 35 35 21 34 37 22 14 13 10 9 9 0 0 0 0 0 3 4 0 0 0 0 0 0 0 0 0 0 0 0 0 0 0 0 0 0 0 0 0
24 27 26 43 33 48 39 38 42 43 41 25 39 30 22 12 9 8 4 0 0 0 0 0 5 0 0 0 0 0 0 0 0 0 0 0 0 0 0 0 0 0 0 0 0 0 0
27 20 47 44 43 41 41 50 44 39 31 46 41 37 34 15 11 6 1 0 0 0 0 0 4 0 0 0 0 0 0 0 0 0 0 0 0 0 0 0 0 0 0 0 4 1 0
26 33 27 47 49 45 22 48 33 42 45 34 50 47 48 29 12 14 0 0 0 0 0 0 0 0 0 0 0 0 0 0 0 0 0 0 0 0 0 0 0 0 0 0 0 25 7
44 43 44 38 52 38 27 35 25 19 43 39 37 58 59 49 29 12 0 0 0 0 0 0 0 0 0 0 0 0 0 0 0 0 0 0 0 0 0 0 0 0 0 0 0 1 0
62 60 47 48 52 66 49 63 54 31 18 51 44 57 50 55 23 1 0 0 0 0 0 0 0 0 0 0 0 0 0 0 0 0 0 0 0 0 0 0 0 0 0 0 0 8 0
68 58 63 59 64 67 71 77 72 64 54 38 55 49 40 35 1 0 0 0 0 0 1 0 0 0 0 0 0 0 0 0 0 0 0 0 0 0 0 0 0 0 0 0 0 1 0
58 57 73 70 64 59 83 92 103 93 84 69 65 51 51 55 0 0 0 0 0 1 0 0 0 0 0 0 0 0 0 0 0 0 0 0 0 0 0 0 0 0 0 0 0 0 0
58 65 70 73 57 79 80 79 83 96 95 78 75 63 66 37 5 0 0 0 7 25 0 0 0 0 0 0 0 0 0 0 0 0 0 0 0 0 0 0 0 0 0 0 0 0 0
67 70 72 75 71 75 79 81 81 86 92 91 91 75 60 6 0 2 0 6 34 14 0 0 0 0 0 0 0 0 0 0 0 0 0 0 0 0 0 0 0 0 0 0 0 0 0
68 70 76 75 74 71 69 68 68 69 77 78 91 77 56 8 0 0 20 82 7 0 0 0 0 0 0 0 0 0 0 0 0 0 0 0 0 0 0 0 0 0 0 0 0 0 0
82 80 76 74 68 69 69 68 65 71 73 60 59 75 40 3 0 6 33 18 0 0 0 0 0 0 0 0 0 0 0 0 0 0 0 0 0 0 0 0 0 0 0 0 2 8 0
91 88 79 67 57 58 67 78 73 73 66 53 48 65 18 0 0 22 56 10 0 0 0 0 0 0 0 11 2 0 0 0 0 0 0 0 0 0 0 0 0 0 0 4 6 18 7
70 70 63 57 51 53 64 77 86 76 65 48 31 33 12 2 51 42 13 0 0 0 0 0 0 0 0 0 0 0 0 0 0 0 0 0 0 0 0 0 0 0 0 0 1 3 2
61 60 48 42 44 51 70 84 91 83 51 49 22 8 7 11 48 21 7 0 0 0 0 0 0 0 0 0 0 0 0 0 0 0 0 0 0 0 0 0 0 0 0 0 0 0 8
61 53 48 49 49 57 65 76 83 63 57 35 12 15 24 1 10 16 6 9 0 0 0 0 0 0 0 0 0 0 31 0 0 0 0 0 0 0 0 0 0 0 0 0 0 0 8
59 53 50 54 56 61 77 70 70 70 73 29 2 1 28 44 0 0 2 3 4 2 0 0 0 0 0 0 0 0 2 0 0 1 0 0 0 0 0 0 0 0 0 0 0 1 1
58 57 54 49 82 73 46 49 82 72 61 9 4 2 2 21 8 3 0 2 1 6 0 0 0 0 0 0 0 0 11 0 0 0 0 0 0 0 0 0 0 0 0 0 0 0 12
67 80 76 53 71 78 85 49 47 45 60 23 0 6 6 0 16 17 16 0 0 0 0 0 0 0 0 0 0 17 115 29 15 0 0 1 0 0 0 0 0 0 0 0 0 0 31
92 73 71 80 90 98 83 54 55 52 45 14 1 0 0 4 29 19 2 0 0 2 0 0 0 0 0 0 8 179 203 76 20 1 0 0 0 0 0 0 0 0 0 0 0 0 0
82 92 98 97 110 76 71 68 51 57 55 48 1 0 1 13 3 1 1 0 2 3 0 0 0 0 0 298 366 243 57 2 4 2 13 2 6 3 12 3 0 0 0 0 0 0 0
69 67 71 82 89 80 73 60 54 50 67 51 0 3 1 1 0 0 0 0 0 0 0 0 0 0 0 0 83 86 2 0 0 2 0 0 27 18 41 8 0 0 0 0 0 0 0
60 76 89 79 70 68 63 49 51 41 61 34 19 6 10 2 7 0 2 0 0 0 0 0 0 0 1 0 28 26 39 31 3 0 0 19 0 5 0 34 2 0 0 0 3 0 0
44 49 42 56 59 70 74 69 50 38 65 56 7 12 29 4 0 14 0 0 0 0 0 0 0 0 221 1 10 24 7 23 2 0 0 2 0 0 3 0 0 6 0 5 5 0 11
40 44 52 52 56 90 92 78 65 60 56 52 1 4 17 9 0 8 39 8 6 9 3 0 12 12 7 33 8 4 5 6 0 0 20 3 1 0 0 13 13 5 18 0 0 4 0
37 43 46 54 54 92 116 90 75 98 55 49 12 0 1 41 119 36 0 8 27 133 96 10 1 0 0 4 32 28 36 5 3 0 6 53 0 0 0 0 17 42 31 0 1 0 27